CW9648 Weather Reports


time (UTC)temp
C
wind
direction
speed
KPH
gust
KPH
rain 1hr
cm
rain 24hr
cm
rain mn
cm
humidity
%
barometer
mb
20260506110504 23 212 0.0 1.6 0.00 0.00 0.00 93 1010.3
20260506110004 23 212 0.0 3.2 0.00 0.00 0.00 93 1010.3
20260506105525 23 200 1.6 3.2 0.00 0.00 0.00 93 1010.1
20260506105004 23 178 1.6 8.0 0.00 0.00 0.00 93 1010.1
20260506104504 23 182 1.6 8.0 0.00 0.00 0.00 93 1010.1
20260506104025 23 192 1.6 8.0 0.00 0.00 0.00 93 1010.1
20260506103504 23 191 1.6 4.8 0.00 0.00 0.00 93 1010.0
20260506103004 23 177 1.6 4.8 0.00 0.00 0.00 93 1010.0
20260506102504 23 166 1.6 4.8 0.00 0.00 0.00 93 1010.0
20260506102004 23 204 1.6 3.2 0.00 0.00 0.00 93 1010.1
20260506101504 23 216 1.6 4.8 0.00 0.00 0.00 93 1010.0
20260506101004 23 209 1.6 4.8 0.00 0.00 0.00 93 1010.1
20260506100504 23 201 1.6 6.4 0.00 0.00 0.00 93 1010.0
20260506100004 23 202 1.6 6.4 0.00 0.00 0.00 93 1010.0
20260506095504 23 203 1.6 4.8 0.00 0.00 0.00 93 1009.9
20260506095004 23 188 0.0 3.2 0.00 0.00 0.00 93 1009.9
20260506094504 23 184 0.0 3.2 0.00 0.00 0.00 93 1009.9
20260506094004 23 169 1.6 3.2 0.00 0.00 0.00 93 1009.9
20260506093504 23 180 1.6 3.2 0.00 0.00 0.00 93 1009.8
20260506093004 23 198 1.6 3.2 0.00 0.00 0.00 93 1009.9
20260506092504 23 184 1.6 6.4 0.00 0.00 0.00 93 1009.9
20260506092004 23 186 1.6 6.4 0.00 0.00 0.00 93 1009.9
20260506091504 23 192 1.6 3.2 0.00 0.00 0.00 93 1010.0
20260506091004 23 189 1.6 4.8 0.00 0.00 0.00 93 1010.0
20260506090525 23 201 1.6 4.8 0.00 0.00 0.00 93 1009.9
20260506090004 23 190 1.6 8.0 0.00 0.00 0.00 93 1009.8
20260506085504 23 183 1.6 8.0 0.00 0.00 0.00 93 1009.9
20260506085004 23 199 1.6 4.8 0.00 0.00 0.00 93 1010.0
20260506084504 23 198 1.6 4.8 0.00 0.00 0.00 93 1009.9
20260506084004 23 202 1.6 4.8 0.00 0.00 0.00 93 1010.0
20260506083504 23 197 1.6 4.8 0.00 0.00 0.00 93 1009.9
20260506083004 23 188 1.6 3.2 0.00 0.00 0.00 93 1009.9
20260506082504 23 203 1.6 3.2 0.00 0.00 0.00 93 1009.9
20260506082004 23 208 1.6 3.2 0.00 0.00 0.00 93 1009.9
20260506081504 23 202 0.0 3.2 0.00 0.00 0.00 93 1009.9
20260506081025 23 197 0.0 3.2 0.00 0.00 0.00 93 1009.9
20260506080504 23 189 1.6 4.8 0.00 0.00 0.00 93 1009.9
20260506073504 23 187 1.6 3.2 0.00 0.00 0.00 92 1010.1
20260506073004 23 186 0.0 3.2 0.00 0.00 0.00 92 1010.2
20260506072504 23 171 1.6 6.4 0.00 0.00 0.00 92 1010.1
20260506072004 23 165 1.6 8.0 0.00 0.00 0.00 92 1010.2
20260506071525 23 161 1.6 8.0 0.00 0.00 0.00 92 1010.3
20260506071004 23 176 1.6 6.4 0.00 0.00 0.00 92 1010.3
20260506070504 23 189 1.6 3.2 0.00 0.00 0.00 92 1010.5
20260506062504 24 196 1.6 4.8 0.00 0.00 0.00 91 1010.2
20260506062004 24 196 1.6 8.0 0.00 0.00 0.00 91 1010.4
20260506061504 24 205 1.6 8.0 0.00 0.00 0.00 92 1010.3
20260506061004 24 204 1.6 6.4 0.00 0.00 0.00 92 1010.3
20260506060504 24 198 3.2 8.0 0.00 0.00 0.00 92 1010.3
20260506051004 24 190 3.2 8.0 0.00 0.00 0.00 91 1010.1
20260506050504 24 182 3.2 11.3 0.00 0.00 0.00 91 1010.1
20260506045004 24 193 1.6 9.7 0.00 0.00 0.00 91 1010.3
20260506044504 24 193 1.6 9.7 0.00 0.00 0.00 91 1010.3
20260506044004 24 184 1.6 9.7 0.00 0.00 0.00 91 1010.3
20260506043504 24 176 1.6 9.7 0.00 0.00 0.00 91 1010.1
20260506043004 24 176 3.2 8.0 0.00 0.00 0.00 91 1010.2
20260506042525 24 183 1.6 8.0 0.00 0.00 0.00 91 1010.2
20260506042004 24 197 1.6 9.7 0.00 0.00 0.00 91 1010.1
20260506041525 24 181 3.2 9.7 0.00 0.00 0.00 91 1010.0
20260506041004 24 178 3.2 8.0 0.00 0.00 0.00 91 1010.1
20260506040504 24 184 1.6 6.4 0.00 0.00 0.00 91 1010.0
20260506040004 24 186 1.6 6.4 0.00 0.00 0.00 91 1010.0
20260506035504 24 177 3.2 9.7 0.00 0.00 0.00 91 1010.0
20260506035004 24 174 3.2 9.7 0.00 0.00 0.00 91 1010.0
20260506034504 24 201 1.6 4.8 0.00 0.00 0.00 91 1010.0
20260506034004 24 202 1.6 4.8 0.00 0.00 0.00 91 1009.9
20260506033504 24 204 3.2 6.4 0.00 0.00 0.00 91 1009.8
20260506033004 24 192 3.2 9.7 0.00 0.00 0.00 91 1009.7
20260506032504 24 189 3.2 9.7 0.00 0.00 0.00 91 1009.6
20260506032004 24 206 3.2 12.9 0.00 0.00 0.00 91 1009.6
20260506031504 24 210 1.6 12.9 0.00 0.00 0.00 91 1009.5
20260506031004 24 182 1.6 8.0 0.00 0.00 0.00 90 1009.4
20260506030504 24 179 3.2 8.0 0.00 0.00 0.00 90 1009.4
20260506030005 24 195 1.6 8.0 0.00 0.00 0.00 90 1009.2
20260506025504 24 187 1.6 6.4 0.00 0.00 0.00 90 1009.3
20260506025004 24 167 3.2 11.3 0.00 0.00 0.00 90 1009.2
20260506024504 24 169 3.2 11.3 0.00 0.00 0.00 90 1009.1
20260506024004 25 174 3.2 8.0 0.00 0.00 0.00 89 1009.0
20260506023504 25 187 1.6 6.4 0.00 0.00 0.00 89 1009.1
20260506023004 25 195 3.2 6.4 0.00 0.00 0.00 89 1009.1
20260506022504 25 185 3.2 6.4 0.00 0.00 0.00 89 1009.0
20260506022004 25 180 3.2 12.9 0.00 0.00 0.00 89 1008.9
20260506021504 25 185 3.2 12.9 0.00 0.00 0.00 89 1008.9
20260506021004 25 188 1.6 8.0 0.00 0.00 0.00 89 1008.7
20260506020504 25 179 3.2 8.0 0.00 0.00 0.00 89 1008.7
20260506020004 25 180 3.2 9.7 0.00 0.00 0.00 89 1008.6
20260506015504 25 184 3.2 9.7 0.00 0.00 0.00 89 1008.4
20260506015004 25 191 3.2 9.7 0.00 0.00 0.00 89 1008.4
20260506014504 25 200 1.6 6.4 0.00 0.00 0.00 89 1008.4
20260506014025 25 183 1.6 9.7 0.00 0.00 0.00 89 1008.2
20260506013504 25 177 3.2 9.7 0.00 0.00 0.00 89 1008.2
20260506013004 25 186 3.2 9.7 0.00 0.00 0.00 89 1008.1
20260506012525 25 182 3.2 9.7 0.00 0.00 0.00 89 1008.1
20260506012004 25 172 3.2 9.7 0.00 0.00 0.00 89 1007.9
20260506011504 25 172 1.6 6.4 0.00 0.00 0.00 88 1007.8
20260506011004 25 206 1.6 8.0 0.00 0.00 0.00 88 1007.7
20260506010504 25 206 3.2 8.0 0.00 0.00 0.00 87 1007.6
20260506010004 25 191 3.2 8.0 0.00 0.00 0.00 87 1007.6
20260506005504 25 186 3.2 11.3 0.00 0.00 0.00 87 1007.5
20260506005004 25 192 3.2 11.3 0.00 0.00 0.00 87 1007.5
20260506004504 25 194 3.2 9.7 0.00 0.00 0.00 87 1007.4
20260506004004 26 191 3.2 9.7 0.00 0.00 0.00 87 1007.3
20260506003504 26 182 3.2 9.7 0.00 0.00 0.00 86 1007.2
20260506003004 26 176 3.2 9.7 0.00 0.00 0.00 86 1007.4
20260506002504 26 193 3.2 6.4 0.00 0.00 0.00 86 1007.3
20260506002004 26 197 3.2 6.4 0.00 0.00 0.00 86 1007.4
20260506001507 26 180 3.2 8.0 0.00 0.00 0.00 85 1007.5
20260506001025 26 191 3.2 8.0 0.00 0.00 0.00 85 1007.4
20260506000524 26 213 1.6 8.0 0.00 0.00 0.00 85 1007.5
20260506000004 26 323 3.2 6.4 0.00 0.00 0.00 84 1007.3
20260505235504 26 2 3.2 9.7 0.00 0.00 0.00 84 1007.4
20260505235003 26 359 3.2 9.7 0.00 0.00 0.00 83 1007.4
20260505234503 26 181 4.8 12.9 0.00 0.00 0.00 83 1007.4
20260505234003 27 173 4.8 14.5 0.00 0.00 0.00 82 1007.4
20260505233525 27 173 4.8 14.5 0.00 0.00 0.00 82 1007.4
20260505233004 27 172 4.8 14.5 0.00 0.00 0.00 82 1007.5
20260505232504 27 174 6.4 14.5 0.00 0.00 0.00 81 1007.6
20260505232004 27 185 4.8 14.5 0.00 0.00 0.00 80 1007.6
20260505231525 27 193 3.2 9.7 0.00 0.00 0.00 80 1007.5
20260505231003 27 201 3.2 9.7 0.00 0.00 0.00 80 1007.6
20260505230504 27 217 3.2 8.0 0.00 0.00 0.00 80 1007.6
20260505230004 27 176 4.8 16.1 0.00 0.00 0.00 80 1007.6
20260505225504 27 167 4.8 16.1 0.00 0.00 0.00 80 1007.6
20260505225003 28 171 3.2 9.7 0.00 0.00 0.00 80 1007.7
20260505224503 28 170 3.2 9.7 0.00 0.00 0.00 80 1007.7
20260505224004 27 191 3.2 8.0 0.00 0.00 0.00 80 1007.7
20260505223525 27 180 3.2 12.9 0.00 0.00 0.00 79 1007.6
20260505223004 28 171 4.8 12.9 0.00 0.00 0.00 79 1007.7
20260505222525 28 177 3.2 9.7 0.00 0.00 0.00 80 1007.7
20260505222003 27 173 3.2 19.3 0.00 0.00 0.00 81 1007.8
20260505221503 27 168 4.8 19.3 0.00 0.00 0.00 80 1007.8
20260505221004 27 169 4.8 14.5 0.00 0.00 0.00 79 1007.7
20260505220503 28 179 4.8 12.9 0.00 0.00 0.00 78 1007.6
20260505220004 28 179 6.4 16.1 0.00 0.00 0.00 78 1007.5
20260505215504 28 175 6.4 16.1 0.00 0.00 0.00 77 1007.6
20260505215003 28 173 4.8 17.7 0.00 0.00 0.00 77 1007.6
20260505214503 28 190 4.8 17.7 0.00 0.00 0.00 77 1007.5
20260505214004 28 217 4.8 9.7 0.00 0.00 0.00 77 1007.5
20260505213524 28 191 6.4 17.7 0.00 0.00 0.00 77 1007.7
20260505213003 28 176 6.4 17.7 0.00 0.00 0.00 77 1007.5
20260505212503 28 174 6.4 17.7 0.00 0.00 0.00 77 1007.7
20260505212003 28 167 8.0 17.7 0.00 0.00 0.00 77 1007.8
20260505211503 28 179 6.4 16.1 0.00 0.00 0.00 77 1007.8
20260505211003 28 206 6.4 16.1 0.00 0.00 0.00 77 1007.8
20260505210524 28 216 6.4 16.1 0.00 0.00 0.00 76 1007.9
20260505210004 28 208 6.4 16.1 0.00 0.00 0.00 77 1007.9
20260505205503 28 187 4.8 16.1 0.00 0.00 0.00 76 1008.1
20260505205024 28 177 4.8 14.5 0.00 0.00 0.00 78 1008.1
20260505204503 28 182 6.4 16.1 0.00 0.00 0.00 78 1008.2
20260505204003 28 175 4.8 16.1 0.00 0.00 0.00 78 1008.2
20260505203503 28 167 6.4 19.3 0.00 0.00 0.00 78 1008.3
20260505203024 28 188 8.0 19.3 0.00 0.00 0.00 76 1008.4
20260505202503 28 211 6.4 17.7 0.00 0.00 0.00 74 1008.4
20260505202024 28 177 8.0 22.5 0.00 0.00 0.00 75 1008.4
20260505201504 28 166 9.7 22.5 0.00 0.00 0.00 76 1008.4
20260505201003 28 170 8.0 22.5 0.00 0.00 0.00 77 1008.5
20260505200504 28 185 6.4 22.5 0.00 0.00 0.00 78 1008.4
20260505200004 28 180 8.0 20.9 0.00 0.00 0.00 77 1008.6
20260505195504 28 171 8.0 20.9 0.00 0.00 0.00 78 1008.7
20260505195024 28 192 6.4 14.5 0.00 0.00 0.00 79 1008.8
20260505194504 28 223 4.8 14.5 0.00 0.00 0.00 79 1008.9
20260505194003 27 267 4.8 17.7 0.00 0.00 0.00 80 1008.9
20260505193503 27 207 4.8 17.7 0.00 0.00 0.00 81 1009.1
20260505193003 27 185 4.8 11.3 0.00 0.00 0.00 82 1009.1
20260505192504 27 184 3.2 11.3 0.00 0.00 0.00 83 1009.2
20260505192024 27 189 3.2 9.7 0.00 0.00 0.00 83 1009.2
20260505191503 27 288 3.2 9.7 0.00 0.00 0.00 84 1009.2
20260505191003 26 356 4.8 9.7 0.00 0.00 0.00 85 1009.2
20260505190503 26 360 4.8 9.7 0.00 0.00 0.00 85 1009.2
20260505190004 26 360 3.2 8.0 0.00 0.00 0.00 85 1009.3
20260505185503 26 360 3.2 8.0 0.00 0.00 0.00 85 1009.4
20260505185003 26 360 3.2 9.7 0.00 0.00 0.00 85 1009.4
20260505184524 26 360 4.8 12.9 0.00 0.00 0.00 84 1009.5
20260505184003 26 360 4.8 12.9 0.00 0.00 0.00 84 1009.4
20260505183503 26 360 4.8 12.9 0.00 0.00 0.00 83 1009.4
20260505183003 26 360 4.8 9.7 0.00 0.00 0.00 84 1009.4
20260505182503 26 360 3.2 8.0 0.00 0.00 0.00 85 1009.3
20260505182003 26 358 3.2 9.7 0.00 0.00 0.00 85 1009.4
20260505181503 26 355 3.2 12.9 0.00 0.00 0.00 84 1009.3
20260505181003 26 357 3.2 12.9 0.00 0.00 0.00 85 1009.4
20260505180503 25 359 3.2 11.3 0.00 0.00 0.00 86 1009.6
20260505180003 25 359 3.2 11.3 0.00 0.00 0.00 86 1009.5
20260505175503 25 360 3.2 9.7 0.00 0.00 0.00 86 1009.7
20260505175003 25 360 3.2 9.7 0.00 0.00 0.00 85 1009.7
20260505174503 25 359 3.2 8.0 0.00 0.00 0.00 85 1009.7
20260505174024 25 358 3.2 12.9 0.00 0.00 0.00 84 1009.7
20260505173503 25 357 4.8 12.9 0.00 0.00 0.00 84 1009.7
20260505173004 25 358 3.2 9.7 0.00 0.00 0.00 84 1009.6
20260505172524 25 344 3.2 9.7 0.00 0.00 0.00 85 1009.8
20260505172003 25 195 3.2 9.7 0.00 0.00 0.00 86 1010.1
20260505171503 25 189 3.2 9.7 0.00 0.00 0.00 87 1009.9
20260505171003 25 185 3.2 9.7 0.00 0.00 0.00 86 1010.1
20260505170503 25 180 3.2 9.7 0.00 0.00 0.00 86 1010.2
20260505170024 25 186 3.2 8.0 0.00 0.00 0.00 86 1010.2
20260505165504 25 190 3.2 14.5 0.00 0.00 0.00 86 1010.2
20260505165003 25 177 4.8 14.5 0.00 0.00 0.00 86 1010.1
20260505164504 25 178 4.8 14.5 0.00 0.00 0.00 86 1010.0
20260505164003 25 189 4.8 14.5 0.00 0.00 0.00 87 1009.8
20260505163524 25 193 4.8 11.3 0.00 0.00 0.00 87 1010.0
20260505163024 24 196 3.2 11.3 0.00 0.00 0.00 87 1010.1
20260505162503 24 194 3.2 11.3 0.00 0.00 0.00 87 1010.2
20260505162003 24 189 3.2 11.3 0.00 0.00 0.00 87 1010.2
20260505161524 24 195 1.6 8.0 0.00 0.00 0.00 88 1010.3
20260505161003 24 208 1.6 8.0 0.00 0.00 0.00 88 1010.3
20260505160503 24 207 3.2 9.7 0.00 0.00 0.00 88 1010.3
20260505153003 23 211 3.2 11.3 0.00 0.00 0.00 88 1010.0
20260505152503 23 186 3.2 11.3 0.00 0.00 0.00 88 1009.9
20260505152024 23 179 4.8 12.9 0.00 0.00 0.00 88 1010.1
20260505151503 23 189 4.8 12.9 0.00 0.00 0.00 88 1010.1
20260505151024 23 183 4.8 17.7 0.00 0.00 0.00 88 1010.0
20260505150503 23 183 4.8 17.7 0.00 0.00 0.00 88 1009.9
20260505140504 21 224 1.6 6.4 0.00 0.00 0.00 92 1010.2
20260505125004 21 199 1.6 6.4 0.00 0.00 0.00 92 1009.8
20260505124525 21 181 3.2 9.7 0.00 0.00 0.00 92 1009.8
20260505124004 21 169 4.8 11.3 0.00 0.00 0.00 92 1009.7
20260505123525 21 170 3.2 11.3 0.00 0.00 0.00 92 1009.6
20260505123004 21 171 3.2 9.7 0.00 0.00 0.00 92 1009.5
20260505122504 21 177 1.6 9.7 0.00 0.00 0.00 92 1009.3
20260505122004 21 185 1.6 6.4 0.00 0.00 0.00 92 1009.4
20260505121504 21 181 1.6 6.4 0.00 0.00 0.00 92 1009.4
20260505121025 21 182 1.6 6.4 0.00 0.00 0.00 92 1009.6
20260505120504 21 195 1.6 6.4 0.00 0.00 0.00 92 1009.7
20260505120005 21 206 1.6 6.4 0.00 0.00 0.00 92 1009.6
20260505115504 21 202 1.6 6.4 0.00 0.00 0.00 92 1009.3
20260505115004 21 183 3.2 11.3 0.00 0.00 0.00 92 1009.2
20260505114504 20 176 3.2 12.9 0.00 0.00 0.00 92 1009.1
20260505114004 20 173 4.8 16.1 0.00 0.00 0.00 92 1009.2
20260505113504 20 175 3.2 16.1 0.00 0.00 0.00 92 1009.2
20260505113004 20 187 3.2 11.3 0.00 0.00 0.00 92 1009.3
20260505112504 20 190 3.2 11.3 0.00 0.00 0.00 92 1009.3
20260505112004 20 195 3.2 6.4 0.00 0.00 0.00 92 1009.2
20260505111504 20 198 1.6 8.0 0.00 0.00 0.00 92 1009.3
20260505111004 20 209 1.6 8.0 0.00 0.00 0.00 92 1009.1